Time,TemperatureF,DewpointF,PressureIn,WindDirection,WindDirectionDegrees,WindSpeedMPH,WindSpeedGustMPH,Humidity,HourlyPrecipIn,Conditions,Clouds,dailyrainin,SoftwareType,DateUTC
2013-10-28 00:05:00,40.1,22.5,30.09,North,-999,0.0,0.0,49,0.00,,,-99.99,FreeWX 2.04,2013-10-28 04:05:00,
2013-10-28 00:15:00,39.9,22.3,30.09,North,-999,0.0,0.0,49,0.00,,,-99.99,FreeWX 2.04,2013-10-28 04:15:00,
2013-10-28 00:25:00,39.7,22.1,30.09,North,-999,0.0,0.0,49,0.00,,,-99.99,FreeWX 2.04,2013-10-28 04:25:00,
2013-10-28 00:35:00,39.7,22.1,30.09,North,-999,0.0,0.0,49,0.00,,,-99.99,FreeWX 2.04,2013-10-28 04:35:00,
2013-10-28 00:45:00,39.7,22.6,30.09,North,-999,0.0,0.0,50,0.00,,,-99.99,FreeWX 2.04,2013-10-28 04:45:00,
2013-10-28 00:56:00,39.6,22.5,30.09,North,-999,0.0,0.0,50,0.00,,,-99.99,FreeWX 2.04,2013-10-28 04:56:00,
2013-10-28 01:06:00,39.2,22.1,30.09,North,-999,0.0,0.0,50,0.00,,,-99.99,FreeWX 2.04,2013-10-28 05:06:00,
2013-10-28 01:16:00,39.0,22.5,30.09,North,-999,0.0,0.0,51,0.00,,,-99.99,FreeWX 2.04,2013-10-28 05:16:00,
2013-10-28 01:26:00,39.0,22.5,30.09,North,-999,0.0,0.0,51,0.00,,,-99.99,FreeWX 2.04,2013-10-28 05:26:00,
2013-10-28 01:36:00,38.8,22.3,30.09,North,-999,0.0,0.0,51,0.00,,,-99.99,FreeWX 2.04,2013-10-28 05:36:00,
2013-10-28 01:46:00,38.8,22.8,30.09,North,-999,0.0,0.0,52,0.00,,,-99.99,FreeWX 2.04,2013-10-28 05:46:00,
2013-10-28 01:56:00,38.5,22.5,30.09,North,-999,0.0,0.0,52,0.00,,,-99.99,FreeWX 2.04,2013-10-28 05:56:00,
2013-10-28 02:06:00,38.7,22.6,30.09,North,-999,0.0,0.0,52,0.00,,,-99.99,FreeWX 2.04,2013-10-28 06:06:00,
2013-10-28 02:16:00,38.5,22.5,30.09,North,-999,0.0,0.0,52,0.00,,,-99.99,FreeWX 2.04,2013-10-28 06:16:00,
2013-10-28 02:26:00,38.3,22.6,30.09,North,-999,0.0,0.0,53,0.00,,,-99.99,FreeWX 2.04,2013-10-28 06:26:00,
2013-10-28 02:36:00,38.5,22.8,30.09,North,-999,0.0,0.0,53,0.00,,,-99.99,FreeWX 2.04,2013-10-28 06:36:00,
2013-10-28 02:46:00,38.3,22.6,30.09,North,-999,0.0,0.0,53,0.00,,,-99.99,FreeWX 2.04,2013-10-28 06:46:00,
2013-10-28 02:56:00,38.1,22.5,30.09,North,-999,0.0,0.0,53,0.00,,,-99.99,FreeWX 2.04,2013-10-28 06:56:00,
2013-10-28 03:06:00,38.1,24.3,30.09,North,-999,0.0,0.0,57,0.00,,,-99.99,FreeWX 2.04,2013-10-28 07:06:00,
2013-10-28 03:16:00,37.9,23.7,30.09,North,-999,0.0,0.0,56,0.00,,,-99.99,FreeWX 2.04,2013-10-28 07:16:00,
2013-10-28 03:26:00,37.9,24.1,30.09,North,-999,0.0,0.0,57,0.00,,,-99.99,FreeWX 2.04,2013-10-28 07:26:00,
2013-10-28 03:36:00,38.1,24.3,30.09,North,-999,0.0,0.0,57,0.00,,,-99.99,FreeWX 2.04,2013-10-28 07:36:00,
2013-10-28 03:46:00,37.9,23.7,30.09,North,-999,0.0,0.0,56,0.00,,,-99.99,FreeWX 2.04,2013-10-28 07:46:00,
2013-10-28 03:56:00,37.9,23.7,30.09,North,-999,0.0,0.0,56,0.00,,,-99.99,FreeWX 2.04,2013-10-28 07:56:00,
2013-10-28 04:06:00,38.1,24.3,30.09,North,-999,0.0,0.0,57,0.00,,,-99.99,FreeWX 2.04,2013-10-28 08:06:00,
2013-10-28 04:16:00,38.3,24.4,30.09,North,-999,0.0,0.0,57,0.00,,,-99.99,FreeWX 2.04,2013-10-28 08:16:00,
2013-10-28 04:26:00,37.8,23.9,30.12,North,-999,0.0,0.0,57,0.00,,,-99.99,FreeWX 2.04,2013-10-28 08:26:00,
2013-10-28 04:36:00,37.9,24.1,30.12,North,-999,0.0,0.0,57,0.00,,,-99.99,FreeWX 2.04,2013-10-28 08:36:00,
2013-10-28 04:46:00,38.1,24.6,30.12,North,-999,0.0,0.0,58,0.00,,,-99.99,FreeWX 2.04,2013-10-28 08:46:00,
2013-10-28 04:56:00,38.1,24.6,30.12,North,-999,0.0,0.0,58,0.00,,,-99.99,FreeWX 2.04,2013-10-28 08:56:00,
2013-10-28 05:06:00,38.3,24.8,30.12,North,-999,0.0,0.0,58,0.00,,,-99.99,FreeWX 2.04,2013-10-28 09:06:00,
2013-10-28 05:16:00,38.8,25.7,30.12,North,-999,0.0,0.0,59,0.00,,,-99.99,FreeWX 2.04,2013-10-28 09:16:00,
2013-10-28 05:26:00,39.2,26.4,30.12,North,-999,0.0,0.0,60,0.00,,,-99.99,FreeWX 2.04,2013-10-28 09:26:00,
2013-10-28 05:36:00,39.2,26.4,30.12,North,-999,0.0,0.0,60,0.00,,,-99.99,FreeWX 2.04,2013-10-28 09:36:00,
2013-10-28 05:46:00,39.4,26.6,30.12,North,-999,0.0,0.0,60,0.00,,,-99.99,FreeWX 2.04,2013-10-28 09:46:00,
2013-10-28 05:56:00,39.7,27.3,30.12,North,-999,0.0,0.0,61,0.00,,,-99.99,FreeWX 2.04,2013-10-28 09:56:00,
2013-10-28 06:06:00,39.9,27.5,30.15,North,-999,0.0,0.0,61,0.00,,,-99.99,FreeWX 2.04,2013-10-28 10:06:00,
2013-10-28 06:16:00,39.9,27.5,30.15,North,-999,0.0,0.0,61,0.00,,,-99.99,FreeWX 2.04,2013-10-28 10:16:00,
2013-10-28 06:26:00,40.3,27.9,30.15,North,-999,0.0,0.0,61,0.00,,,-99.99,FreeWX 2.04,2013-10-28 10:26:00,
2013-10-28 06:36:00,40.5,28.0,30.15,North,-999,0.0,0.0,61,0.00,,,-99.99,FreeWX 2.04,2013-10-28 10:36:00,
2013-10-28 06:46:00,40.6,28.2,30.15,North,-999,0.0,0.0,61,0.00,,,-99.99,FreeWX 2.04,2013-10-28 10:46:00,
2013-10-28 06:56:00,41.0,28.9,30.15,North,-999,0.0,0.0,62,0.00,,,-99.99,FreeWX 2.04,2013-10-28 10:56:00,
2013-10-28 07:06:00,41.4,29.3,30.15,North,-999,0.0,0.0,62,0.00,,,-99.99,FreeWX 2.04,2013-10-28 11:06:00,
2013-10-28 07:16:00,41.5,29.5,30.15,North,-999,0.0,0.0,62,0.00,,,-99.99,FreeWX 2.04,2013-10-28 11:16:00,
2013-10-28 07:26:00,41.7,30.0,30.15,North,-999,0.0,0.0,63,0.00,,,-99.99,FreeWX 2.04,2013-10-28 11:26:00,
2013-10-28 07:36:00,41.7,30.0,30.15,North,-999,0.0,0.0,63,0.00,,,-99.99,FreeWX 2.04,2013-10-28 11:36:00,
2013-10-28 07:46:00,41.7,30.0,30.15,North,-999,0.0,0.0,63,0.00,,,-99.99,FreeWX 2.04,2013-10-28 11:46:00,
2013-10-28 07:56:00,41.5,29.5,30.15,North,-999,0.0,0.0,62,0.00,,,-99.99,FreeWX 2.04,2013-10-28 11:56:00,
2013-10-28 08:06:00,41.7,30.0,30.18,North,-999,0.0,0.0,63,0.00,,,-99.99,FreeWX 2.04,2013-10-28 12:06:00,
2013-10-28 08:16:00,41.9,30.2,30.18,North,-999,0.0,0.0,63,0.00,,,-99.99,FreeWX 2.04,2013-10-28 12:16:00,
2013-10-28 08:26:00,42.1,30.4,30.18,North,-999,0.0,0.0,63,0.00,,,-99.99,FreeWX 2.04,2013-10-28 12:26:00,
2013-10-28 08:36:00,42.4,30.7,30.18,North,-999,0.0,0.0,63,0.00,,,-99.99,FreeWX 2.04,2013-10-28 12:36:00,
2013-10-28 08:46:00,42.8,31.1,30.18,North,-999,0.0,0.0,63,0.00,,,-99.99,FreeWX 2.04,2013-10-28 12:46:00,
2013-10-28 08:56:00,43.2,31.5,30.18,North,-999,0.0,0.0,63,0.00,,,-99.99,FreeWX 2.04,2013-10-28 12:56:00,
2013-10-28 09:06:00,43.7,32.4,30.18,North,-999,0.0,0.0,64,0.00,,,-99.99,FreeWX 2.04,2013-10-28 13:06:00,
2013-10-28 09:16:00,44.6,33.6,30.18,North,-999,0.0,0.0,65,0.00,,,-99.99,FreeWX 2.04,2013-10-28 13:16:00,
2013-10-28 09:26:00,45.1,34.2,30.21,North,-999,0.0,0.0,65,0.00,,,-99.99,FreeWX 2.04,2013-10-28 13:26:00,
2013-10-28 09:36:00,45.7,34.2,30.21,North,-999,0.0,0.0,64,0.00,,,-99.99,FreeWX 2.04,2013-10-28 13:36:00,
2013-10-28 09:46:00,46.0,34.2,30.21,North,-999,0.0,0.0,63,0.00,,,-99.99,FreeWX 2.04,2013-10-28 13:46:00,
2013-10-28 09:56:00,46.4,34.5,30.21,North,-999,0.0,0.0,63,0.00,,,-99.99,FreeWX 2.04,2013-10-28 13:56:00,
2013-10-28 10:06:00,46.8,34.9,30.21,North,-999,0.0,0.0,63,0.00,,,-99.99,FreeWX 2.04,2013-10-28 14:06:00,
2013-10-28 10:16:00,47.3,34.9,30.21,North,-999,0.0,0.0,62,0.00,,,-99.99,FreeWX 2.04,2013-10-28 14:16:00,
2013-10-28 10:26:00,47.8,35.4,30.21,North,-999,0.0,0.0,62,0.00,,,-99.99,FreeWX 2.04,2013-10-28 14:26:00,
2013-10-28 10:36:00,48.2,35.4,30.21,North,-999,0.0,0.0,61,0.00,,,-99.99,FreeWX 2.04,2013-10-28 14:36:00,
2013-10-28 10:46:00,48.6,35.2,30.21,North,-999,0.0,0.0,60,0.00,,,-99.99,FreeWX 2.04,2013-10-28 14:46:00,
2013-10-28 10:56:00,48.6,34.9,30.21,North,-999,0.0,0.0,59,0.00,,,-99.99,FreeWX 2.04,2013-10-28 14:56:00,
2013-10-28 11:06:00,48.7,34.7,30.21,North,-999,0.0,0.0,58,0.00,,,-99.99,FreeWX 2.04,2013-10-28 15:06:00,
2013-10-28 11:16:00,48.7,34.2,30.21,North,-999,0.0,0.0,57,0.00,,,-99.99,FreeWX 2.04,2013-10-28 15:16:00,
2013-10-28 11:26:00,49.1,34.2,30.24,North,-999,0.0,0.0,56,0.00,,,-99.99,FreeWX 2.04,2013-10-28 15:26:00,
2013-10-28 11:36:00,49.5,34.3,30.24,North,-999,0.0,0.0,56,0.00,,,-99.99,FreeWX 2.04,2013-10-28 15:36:00,
2013-10-28 11:46:00,49.6,34.5,30.24,North,-999,0.0,0.0,56,0.00,,,-99.99,FreeWX 2.04,2013-10-28 15:46:00,
2013-10-28 11:56:00,49.8,34.3,30.24,North,-999,0.0,0.0,55,0.00,,,-99.99,FreeWX 2.04,2013-10-28 15:56:00,
2013-10-28 12:06:00,50.2,35.1,30.24,North,-999,0.0,0.0,56,0.00,,,-99.99,FreeWX 2.04,2013-10-28 16:06:00,
2013-10-28 12:16:00,50.4,35.2,30.24,North,-999,0.0,0.0,56,0.00,,,-99.99,FreeWX 2.04,2013-10-28 16:16:00,
2013-10-28 12:26:00,50.9,35.8,30.21,North,-999,0.0,0.0,56,0.00,,,-99.99,FreeWX 2.04,2013-10-28 16:26:00,
2013-10-28 12:36:00,51.3,36.1,30.21,North,-999,0.0,0.0,56,0.00,,,-99.99,FreeWX 2.04,2013-10-28 16:36:00,
2013-10-28 12:46:00,51.6,36.5,30.21,North,-999,0.0,0.0,56,0.00,,,-99.99,FreeWX 2.04,2013-10-28 16:46:00,
2013-10-28 12:56:00,51.8,36.1,30.21,North,-999,0.0,0.0,55,0.00,,,-99.99,FreeWX 2.04,2013-10-28 16:56:00,
2013-10-28 13:06:00,52.2,36.0,30.21,North,-999,0.0,0.0,54,0.00,,,-99.99,FreeWX 2.04,2013-10-28 17:06:00,
2013-10-28 13:16:00,52.2,35.6,30.21,North,-999,0.0,0.0,53,0.00,,,-99.99,FreeWX 2.04,2013-10-28 17:16:00,
2013-10-28 13:26:00,52.3,35.8,30.21,North,-999,0.0,0.0,53,0.00,,,-99.99,FreeWX 2.04,2013-10-28 17:26:00,
2013-10-28 13:36:00,52.5,35.4,30.21,North,-999,0.0,0.0,52,0.00,,,-99.99,FreeWX 2.04,2013-10-28 17:36:00,
2013-10-28 13:46:00,52.7,35.6,30.21,North,-999,0.0,0.0,52,0.00,,,-99.99,FreeWX 2.04,2013-10-28 17:46:00,
2013-10-28 13:56:00,53.1,35.4,30.21,North,-999,0.0,0.0,51,0.00,,,-99.99,FreeWX 2.04,2013-10-28 17:56:00,
2013-10-28 14:06:00,53.6,34.9,30.21,North,-999,0.0,0.0,49,0.00,,,-99.99,FreeWX 2.04,2013-10-28 18:06:00,
2013-10-28 14:16:00,54.0,34.7,30.21,North,-999,0.0,0.0,48,0.00,,,-99.99,FreeWX 2.04,2013-10-28 18:16:00,
2013-10-28 14:26:00,54.7,34.3,30.21,North,-999,0.0,0.0,46,0.00,,,-99.99,FreeWX 2.04,2013-10-28 18:26:00,
2013-10-28 14:36:00,55.0,34.7,30.18,North,-999,0.0,0.0,46,0.00,,,-99.99,FreeWX 2.04,2013-10-28 18:36:00,
2013-10-28 14:46:00,55.4,34.9,30.18,North,-999,0.0,0.0,46,0.00,,,-99.99,FreeWX 2.04,2013-10-28 18:46:00,
2013-10-28 14:56:00,55.4,34.3,30.18,North,-999,0.0,0.0,45,0.00,,,-99.99,FreeWX 2.04,2013-10-28 18:56:00,
2013-10-28 15:06:00,55.2,33.1,30.18,North,-999,0.0,0.0,43,0.00,,,-99.99,FreeWX 2.04,2013-10-28 19:06:00,
2013-10-28 15:16:00,55.2,33.6,30.18,North,-999,0.0,0.0,44,0.00,,,-99.99,FreeWX 2.04,2013-10-28 19:16:00,
2013-10-28 15:26:00,55.2,33.6,30.18,North,-999,0.0,0.0,44,0.00,,,-99.99,FreeWX 2.04,2013-10-28 19:26:00,
2013-10-28 15:36:00,55.2,34.3,30.18,North,-999,0.0,0.0,45,0.00,,,-99.99,FreeWX 2.04,2013-10-28 19:36:00,
2013-10-28 15:46:00,54.9,34.5,30.18,North,-999,0.0,0.0,46,0.00,,,-99.99,FreeWX 2.04,2013-10-28 19:46:00,
2013-10-28 15:56:00,55.2,34.9,30.18,North,-999,0.0,0.0,46,0.00,,,-99.99,FreeWX 2.04,2013-10-28 19:56:00,
2013-10-28 16:06:00,55.8,35.2,30.18,North,-999,0.0,0.0,46,0.00,,,-99.99,FreeWX 2.04,2013-10-28 20:06:00,
2013-10-28 16:16:00,56.3,35.8,30.18,North,-999,0.0,0.0,46,0.00,,,-99.99,FreeWX 2.04,2013-10-28 20:16:00,
2013-10-28 16:26:00,56.7,35.6,30.18,North,-999,0.0,0.0,45,0.00,,,-99.99,FreeWX 2.04,2013-10-28 20:26:00,
2013-10-28 16:36:00,56.7,34.3,30.18,North,-999,0.0,0.0,43,0.00,,,-99.99,FreeWX 2.04,2013-10-28 20:36:00,
2013-10-28 16:46:00,56.8,34.5,30.18,North,-999,0.0,0.0,43,0.00,,,-99.99,FreeWX 2.04,2013-10-28 20:46:00,
2013-10-28 16:56:00,57.0,33.6,30.18,North,-999,0.0,0.0,41,0.00,,,-99.99,FreeWX 2.04,2013-10-28 20:56:00,
2013-10-28 17:06:00,57.2,34.3,30.18,North,-999,0.0,0.0,42,0.00,,,-99.99,FreeWX 2.04,2013-10-28 21:06:00,
2013-10-28 17:16:00,57.0,33.6,30.18,North,-999,0.0,0.0,41,0.00,,,-99.99,FreeWX 2.04,2013-10-28 21:16:00,
2013-10-28 17:26:00,56.8,33.4,30.18,North,-999,0.0,0.0,41,0.00,,,-99.99,FreeWX 2.04,2013-10-28 21:26:00,
2013-10-28 17:36:00,56.7,33.8,30.21,North,-999,0.0,0.0,42,0.00,,,-99.99,FreeWX 2.04,2013-10-28 21:36:00,
2013-10-28 17:46:00,56.3,34.2,30.21,North,-999,0.0,0.0,43,0.00,,,-99.99,FreeWX 2.04,2013-10-28 21:46:00,
2013-10-28 17:56:00,56.3,34.7,30.21,North,-999,0.0,0.0,44,0.00,,,-99.99,FreeWX 2.04,2013-10-28 21:56:00,
2013-10-28 18:06:00,56.1,35.6,30.21,North,-999,0.0,0.0,46,0.00,,,-99.99,FreeWX 2.04,2013-10-28 22:06:00,
2013-10-28 18:16:00,55.9,35.4,30.21,North,-999,0.0,0.0,46,0.00,,,-99.99,FreeWX 2.04,2013-10-28 22:16:00,
2013-10-28 18:26:00,55.6,35.1,30.21,North,-999,0.0,0.0,46,0.00,,,-99.99,FreeWX 2.04,2013-10-28 22:26:00,
2013-10-28 18:36:00,55.4,35.4,30.21,North,-999,0.0,0.0,47,0.00,,,-99.99,FreeWX 2.04,2013-10-28 22:36:00,
2013-10-28 18:46:00,55.2,36.3,30.21,North,-999,0.0,0.0,49,0.00,,,-99.99,FreeWX 2.04,2013-10-28 22:46:00,
2013-10-28 18:56:00,55.0,36.3,30.21,North,-999,0.0,0.0,49,0.00,,,-99.99,FreeWX 2.04,2013-10-28 22:56:00,
2013-10-28 19:06:00,55.0,37.2,30.21,North,-999,0.0,0.0,51,0.00,,,-99.99,FreeWX 2.04,2013-10-28 23:06:00,
2013-10-28 19:16:00,54.9,37.0,30.21,North,-999,0.0,0.0,51,0.00,,,-99.99,FreeWX 2.04,2013-10-28 23:16:00,
2013-10-28 19:26:00,54.7,36.9,30.21,North,-999,0.0,0.0,51,0.00,,,-99.99,FreeWX 2.04,2013-10-28 23:26:00,
2013-10-28 19:36:00,54.5,37.8,30.21,North,-999,0.0,0.0,53,0.00,,,-99.99,FreeWX 2.04,2013-10-28 23:36:00,
2013-10-28 19:46:00,54.5,37.8,30.21,North,-999,0.0,0.0,53,0.00,,,-99.99,FreeWX 2.04,2013-10-28 23:46:00,
2013-10-28 19:56:00,54.5,37.8,30.24,North,-999,0.0,0.0,53,0.00,,,-99.99,FreeWX 2.04,2013-10-28 23:56:00,
2013-10-28 20:06:00,54.3,38.1,30.24,North,-999,0.0,0.0,54,0.00,,,-99.99,FreeWX 2.04,2013-10-29 00:06:00,
2013-10-28 20:16:00,53.8,37.0,30.24,North,-999,0.0,0.0,53,0.00,,,-99.99,FreeWX 2.04,2013-10-29 00:16:00,
2013-10-28 20:27:00,53.2,37.6,30.24,North,-999,0.0,0.0,55,0.00,,,-99.99,FreeWX 2.04,2013-10-29 00:27:00,
2013-10-28 20:37:00,52.9,37.6,30.24,North,-999,0.0,0.0,56,0.00,,,-99.99,FreeWX 2.04,2013-10-29 00:37:00,
2013-10-28 20:47:00,52.5,38.1,30.24,North,-999,0.0,0.0,58,0.00,,,-99.99,FreeWX 2.04,2013-10-29 00:47:00,
2013-10-28 20:57:00,52.2,37.8,30.24,North,-999,0.0,0.0,58,0.00,,,-99.99,FreeWX 2.04,2013-10-29 00:57:00,
2013-10-28 21:07:00,52.2,37.4,30.24,North,-999,0.0,0.0,57,0.00,,,-99.99,FreeWX 2.04,2013-10-29 01:07:00,
2013-10-28 21:17:00,52.0,37.2,30.24,North,-999,0.0,0.0,57,0.00,,,-99.99,FreeWX 2.04,2013-10-29 01:17:00,
2013-10-28 21:27:00,52.0,37.2,30.24,North,-999,0.0,0.0,57,0.00,,,-99.99,FreeWX 2.04,2013-10-29 01:27:00,
2013-10-28 21:37:00,51.6,37.4,30.24,North,-999,0.0,0.0,58,0.00,,,-99.99,FreeWX 2.04,2013-10-29 01:37:00,
2013-10-28 21:47:00,51.3,37.4,30.24,North,-999,0.0,0.0,59,0.00,,,-99.99,FreeWX 2.04,2013-10-29 01:47:00,
2013-10-28 21:57:00,50.9,37.0,30.24,North,-999,0.0,0.0,59,0.00,,,-99.99,FreeWX 2.04,2013-10-29 01:57:00,
2013-10-28 22:07:00,50.5,37.2,30.24,North,-999,0.0,0.0,60,0.00,,,-99.99,FreeWX 2.04,2013-10-29 02:07:00,
2013-10-28 22:17:00,50.2,36.9,30.24,North,-999,0.0,0.0,60,0.00,,,-99.99,FreeWX 2.04,2013-10-29 02:17:00,
2013-10-28 22:27:00,49.8,36.5,30.24,North,-999,0.0,0.0,60,0.00,,,-99.99,FreeWX 2.04,2013-10-29 02:27:00,
2013-10-28 22:37:00,49.8,36.9,30.24,North,-999,0.0,0.0,61,0.00,,,-99.99,FreeWX 2.04,2013-10-29 02:37:00,
2013-10-28 22:47:00,49.8,37.4,30.24,North,-999,0.0,0.0,62,0.00,,,-99.99,FreeWX 2.04,2013-10-29 02:47:00,
2013-10-28 22:57:00,49.5,36.5,30.24,North,-999,0.0,0.0,61,0.00,,,-99.99,FreeWX 2.04,2013-10-29 02:57:00,
2013-10-28 23:07:00,49.1,37.4,30.24,North,-999,0.0,0.0,64,0.00,,,-99.99,FreeWX 2.04,2013-10-29 03:07:00,
2013-10-28 23:17:00,48.6,36.9,30.24,North,-999,0.0,0.0,64,0.00,,,-99.99,FreeWX 2.04,2013-10-29 03:17:00,
2013-10-28 23:27:00,48.0,36.5,30.24,North,-999,0.0,0.0,64,0.00,,,-99.99,FreeWX 2.04,2013-10-29 03:27:00,
2013-10-28 23:37:00,47.7,36.1,30.27,North,-999,0.0,0.0,64,0.00,,,-99.99,FreeWX 2.04,2013-10-29 03:37:00,
2013-10-28 23:47:00,47.5,36.0,30.27,North,-999,0.0,0.0,64,0.00,,,-99.99,FreeWX 2.04,2013-10-29 03:47:00,
2013-10-28 23:57:00,47.3,36.1,30.27,North,-999,0.0,0.0,65,0.00,,,-99.99,FreeWX 2.04,2013-10-29 03:57:00,